Location: Auckland
(36.8670°S, 174.7670°E)
Time: 21:48:13
(UTC+12:00)

Courier 1B Rocket - Pass Details

Date: 26 July 2019
Orbit: 920 x 1202 km, 28.3° (Epoch: 20 August)

Event Time Altitude Azimuth Distance (km) Brightness Sun altitude
Rises 04:40:53 0° 285° (WNW) 4,105 - -32.6°
Reaches altitude 10° 04:43:54 10° 291° (WNW) 3,137 - -32.0°
Exits shadow 04:50:26 43° 343° (NNW) 1,600 5.9 -30.7°
Maximum altitude 04:51:15 45° 0° (N) 1,566 6.0 -30.6°
Drops below altitude 10° 04:58:20 10° 69° (ENE) 3,022 8.4 -29.2°
Sets 05:01:11 0° 75° (ENE) 3,942 9.4 -28.6°
